Regional Weather Roundup
Issued by NWS

Home | Current Version | Previous Version | Graphics & Text | Print | Product List | Glossary On
Versions: 1 2 3 4 5 6 7 8 9 10 11 12 13 14 15 16 17 18 19 20 21 22 23 24 25 26 27 28 29 30 31 32 33 34 35 36 37 38 39 40 41 42 43 44 45 46 47 48 49 50
000
ASUS43 KIND 211209
RWRIN

WEATHER ROUNDUP FOR INDIANA
NATIONAL WEATHER SERVICE INDIANAPOLIS IN
800 AM EDT TUE OCT 21 2014

NOTE: "FAIR" INDICATES FEW OR NO CLOUDS BELOW 12,000 FEET WITH NO
SIGNIFICANT WEATHER AND/OR OBSTRUCTIONS TO VISIBILITY.

* - STATION DOES NOT REPORT WEATHER SUCH AS PRECIPITATION OR FOG.

+ - STATION NOT QUALITY CONTROLLED BY THE NATIONAL WEATHER SERVICE.
    USE DATA WITH CAUTION...ESPECIALLY DEWPOINT AND RELATIVE
    HUMIDITY OBSERVATIONS.

INZ001>003-010>013-019-020-211300-
NORTHWEST INDIANA

CITY           SKY/WX    TMP DP  RH WIND       PRES   REMARKS
KNOX *+        CLOUDY    47  44  90 N6        30.04R
LA PORTE +     MOCLDY    49  44  83 N9        30.05R
6HR MIN TEMP:  49; 6HR MAX TEMP:  53;

MICHIGAN CITY+ RAIN      46  41  81 N12       30.07R
MONTICELLO +   CLOUDY    48  47  94 N3        30.04R
RENSSELAER +   CLOUDY    48  48 100 CALM      30.06R
VALPARAISO     CLOUDY    48  43  82 N8        30.06R
6HR MIN TEMP:  47; 6HR MAX TEMP:  51; 6HR PCP:  0.01;


$$

LMZ046-743>745-211300-
SOUTHERN LAKE MICHIGAN

STATION/POSITION TIME  TEMP WIND        PRES
                       AIR  DIR/SP/G
                 (UTC) (F)  (DEG/KT/KT) (MB)
MICHIGAN CITY    1200   50  330/ 22/ 25   N/A

$$

INZ004-005-014>016-021>024-211300-
NORTH CENTRAL INDIANA

CITY           SKY/WX    TMP DP  RH WIND       PRES   REMARKS
ELKHART        CLOUDY    46  41  81 NW6       30.03R
GOSHEN         CLOUDY    46  41  82 N12       30.02R
6HR MIN TEMP:  46; 6HR MAX TEMP:  49;

LOGANSPORT +   CLOUDY    46  43  87 NW3       30.05R
PERU/GRISSOM   CLOUDY    48  48  98 NW7       30.03R
6HR MIN TEMP:  48; 6HR MAX TEMP:  50;

ROCHESTER +    PTCLDY    46  45  93 NW6       30.04R
SOUTH BEND     LGT RAIN  47  43  86 N8        30.05R
6HR MIN TEMP:  47; 6HR MAX TEMP:  50; 6HR PCP:  0.01;

WARSAW +       CLOUDY    45  41  87 N7        30.02R

$$

INZ006>009-017-018-025>027-211300-
NORTHEAST INDIANA

CITY           SKY/WX    TMP DP  RH WIND       PRES   REMARKS
ANGOLA *+      CLOUDY    46  43  87 NW6       30.00R
AUBURN +       CLOUDY    46  41  81 NW6       30.01R
FORT WAYNE     MOCLDY    48  41  76 N10       30.01R
6HR MIN TEMP:  46; 6HR MAX TEMP:  50;

HUNTINGTON +   PTCLDY    44  41  90 CALM      30.01R
6HR MIN TEMP:  44; 6HR MAX TEMP:  50;


$$

INZ028-029-035-036-043>045-051>053-211300-
WEST CENTRAL INDIANA

CITY           SKY/WX    TMP DP  RH WIND       PRES   REMARKS
GREENCASTLE +  CLOUDY    46  45  93 CALM      30.05R
LAFAYETTE      CLOUDY    48  45  89 NW8       30.05R
6HR MIN TEMP:  42; 6HR MAX TEMP:  48;

TERRE HAUTE    CLOUDY    49  47  93 NW3       30.06R
6HR MIN TEMP:  47; 6HR MAX TEMP:  50;


$$

INZ030>032-037>040-046>048-054>057-064-065-211300-
CENTRAL INDIANA

CITY           SKY/WX    TMP DP  RH WIND       PRES   REMARKS
CP ATTERBURY + MOCLDY    46  43  87 NW5       30.03S
COLUMBUS       MOCLDY    45  45 100 NW7       30.03R
FRANKFORT +    CLOUDY   N/A N/A N/A CALM      30.06R FOG
GREENWOOD *+   CLOUDY    48  43  81 NW6       30.04
INDIANAPOLIS   CLOUDY    47  44  90 NW8       30.03R
6HR MIN TEMP:  44; 6HR MAX TEMP:  49;

-EAGLE CREEK   CLOUDY    48  45  89 NW6       30.03R
6HR MIN TEMP:  47; 6HR MAX TEMP:  51;

KOKOMO *+      MOCLDY    48  43  81 NW8       30.04R
MARION +       CLOUDY    47  41  79 NW6       30.02R
MT COMFORT *+  CLOUDY    48  45  87 NW7       30.03R
SHELBYVILLE    CLOUDY    50  45  83 NW6       30.02R
6HR MIN TEMP:  48; 6HR MAX TEMP:  51;

ZIONSVILLE +   CLOUDY    48  44  85 W3        30.04R
6HR MIN TEMP:  46; 6HR MAX TEMP:  49;


$$

INZ033-034-041-042-049-050-058-059-211300-
EAST CENTRAL INDIANA

CITY           SKY/WX    TMP DP  RH WIND       PRES   REMARKS
MUNCIE         CLOUDY    48  43  82 NW10      30.00R
6HR MIN TEMP:  48; 6HR MAX TEMP:  50;


$$

INZ060-061-067>069-081>083-085>088-211300-
SOUTHWEST INDIANA

CITY           SKY/WX    TMP DP  RH WIND       PRES   REMARKS
EVANSVILLE     CLEAR     45  42  89 CALM      30.05R
6HR MIN TEMP:  45; 6HR MAX TEMP:  56;

HUNTINGBURG *+ CLEAR     45  39  81 NE6       30.05R
6HR MIN TEMP:  45; 6HR MAX TEMP:  54;

WASHINGTON +   CLOUDY    47  46  97 NW5       30.05R
6HR MIN TEMP:  43; 6HR MAX TEMP:  52;


$$

INZ062-063-066-070>080-084-089>092-211300-
SOUTH CENTRAL AND SOUTHEAST INDIANA

CITY           SKY/WX    TMP DP  RH WIND       PRES   REMARKS
BLOOMINGTON    CLOUDY    47  45  93 CALM      30.04R
6HR MIN TEMP:  43; 6HR MAX TEMP:  48;

NORTH VERNON + PTCLDY    46  46 100 NW6       30.02

$$




USA.gov is the U.S. government's official web portal to all federal, state and local government web resources and services.